Tracking 33068 objects as of 24-Jan-2026
HD Live streaming from Space Station
objects crossing your sky now

USA 317

Track USA 317 now!
10-day predictions


NORAD ID: 48847
Int'l Code: 2021-052B
Perigee: 473.9 km
Apogee: 486.3 km
Inclination: 54.9 °
Period: 94.1 minutes
Semi major axis: 6851 km
RCS: Unknown
Launch date: June 15, 2021
Source: United States (US)
Launch site: WALLOPS ISLAND (WLPIS)
Your satellite tracking list
Your tracking list is empty




NASA's NSSDC Master Catalog

Two Line Element Set (TLE):
1 48847U 21052B   25226.91872195 0.00003000  00000-0  98776-4 0    07
2 48847  54.9496 209.9721 0009040 196.5135 163.4864 15.30952390    02
Source of the keplerian elements: McCants